Effective Sunday, March 17, 2024, the National Weather Service National Data Buoy Center will discontinue its Dial-A-Buoy Interactive Voice Response system. For more information, see Service Change Notice 24-06 (PDF).

Station 42002 (LLNR 1470) - WEST GULF - 207 NM East of Brownsville, TX Image indicating link to RSS feed of recent meteorological observations for station 42002


Conditions at 42002 as of
(8:30 pm CST on 02/23/2024)
0230 GMT on 02/24/2024:
     

Click on the graph icon in the table below to see a time series plot of the last five days of that observation.

5-day plot - Wind Direction Wind Direction (WDIR): N ( 10 deg true )
5-day plot - Wind Speed Wind Speed (WSPD): 17.5 kts
5-day plot - Wind Gust Wind Gust (GST): 21.4 kts
5-day plot - Atmospheric Pressure Atmospheric Pressure (PRES):29.99 in
5-day plot - Air Temperature Air Temperature (ATMP): 71.1 °F
5-day plot - Water Temperature Water Temperature (WTMP): 74.5 °F
5-day plot - Wind Speed at 10 Meters Wind Speed at 10 meters (WSPD10M): 19.4 kts
5-day plot - Wind Speed at 20 Meters Wind Speed at 20 meters (WSPD20M): 19.4 kts
5-day plot -  Wind Speed, Wind Gust and Atmospheric Pressure Combined plot of Wind Speed, Gust, and Air Pressure
Supplemental Measurements
Highest 1-minute Wind Speed
Time (CST)5-day plot - 1-Minute Wind Speed WSPD 5-day plot - 1-Minute Wind Direction WDIR
8:24 pm 19.4 kts-
Previous observations
TIME
(CST)
5-day plot - Wind Direction
WDIR
 
5-day plot - Wind Speed
WSPD
kts
5-day plot - Wind Gust
GST
kts
5-day plot - Wave Height
WVHT
ft
5-day plot - Dominant Wave Period
DPD
sec
5-day plot - Average Wave Period
APD
sec
5-day plot - Mean Wave Direction
MWD
 
5-day plot - Atmospheric Pressure
PRES
in
5-day plot - Pressure Tendency
PTDY
in
5-day plot - Air Temperature
ATMP
°F
5-day plot - Water Temperature
WTMP
°F
5-day plot - Dew Point
DEWP
°F
5-day plot - Salinity
SAL
psu
5-day plot - Visibility
VIS
nmi
5-day plot - Tide (above MLLW)
TIDE
ft
2024-02-23 08:20 pm N 17.5 19.4 4.3 54.5NNW29.98- 71.1 74.5----
2024-02-23 08:10 pm N 15.5 19.4----29.98- 70.9 74.5----
2024-02-23 08:00 pm N 17.5 21.4----29.98+0.05 70.9 74.5----
2024-02-23 07:50 pm N 17.5 21.4 3.9 54.4NNW29.97- 70.9 74.5----
2024-02-23 07:40 pm N 15.5 19.4----29.98- 70.9 74.5----
2024-02-23 07:30 pm N 15.5 21.4----29.97- 70.7 74.5----
2024-02-23 07:20 pm N 17.5 19.4 3.9 54.5NNW29.97- 70.7 74.5----
2024-02-23 07:10 pm N 17.5 21.4 3.9-4.5NNW29.97- 70.7 74.5----
2024-02-23 07:00 pm N 17.5 21.4----29.96+0.04 70.7 74.5----
2024-02-23 06:50 pm N 15.5 21.4 4.3 64.6NNW29.96- 70.7 74.5----
2024-02-23 06:40 pm N 15.5 19.4----29.96- 70.7 74.5----
2024-02-23 06:30 pm N 15.5 21.4----29.95- 70.7 74.5----
2024-02-23 06:20 pm N 15.5 19.4 3.9 54.4NNW29.95- 70.9 74.5----
2024-02-23 06:10 pm N 15.5 19.4 3.9-4.4NNW29.94- 70.9 74.5----
2024-02-23 06:00 pm N 15.5 21.4----29.94+0.03 71.1 74.5----
2024-02-23 05:50 pm N 17.5 19.4 3.6 54.3NNW29.94- 71.1 74.5----
2024-02-23 05:40 pm N 17.5 21.4----29.93- 71.1 74.5----
2024-02-23 05:20 pm N 17.5 21.4 3.9 54.4NNW29.93- 71.1 74.5----
2024-02-23 05:10 pm N 15.5 19.4 3.9-4.4NNW29.93- 70.9 74.5----
2024-02-23 05:00 pm N 15.5 19.4----29.93+0.03 71.1 74.5----
2024-02-23 04:50 pm N 15.5 19.4 3.9 44.4 NW29.93- 71.1 74.5----
2024-02-23 04:40 pm N 15.5 19.4 3.9-4.4 NW29.93- 71.1 74.5----
2024-02-23 04:30 pm N 15.5 19.4----29.93- 71.1 74.5----
2024-02-23 04:20 pm N 15.5 17.5 3.6 44.2NNW29.93- 71.2 74.5----
2024-02-23 04:10 pm N 15.5 19.4 3.6-4.2NNW29.92- 71.2 74.5----
2024-02-23 04:00 pm N 15.5 19.4----29.92+0.01 71.1 74.5----
2024-02-23 03:50 pm N 15.5 19.4 3.9 54.2NNW29.91- 71.2 74.5----
2024-02-23 03:40 pm N 15.5 19.4----29.91- 71.2 74.5----
2024-02-23 03:30 pm N 15.5 19.4----29.91- 71.2 74.5----
2024-02-23 03:20 pm N 15.5 19.4 3.6 74.2SSW29.91- 71.2 74.5----
2024-02-23 03:10 pm N 17.5 19.4 3.6-4.2SSW29.91- 71.2 74.5----
2024-02-23 03:00 pmNNW 17.5 19.4----29.91-0.02 71.2 74.5----
2024-02-23 02:50 pmNNW 17.5 19.4 3.9 84.3WSW29.91- 71.2 74.5----
2024-02-23 02:40 pm N 17.5 21.4----29.90- 71.4 74.5----
2024-02-23 02:30 pmNNW 15.5 19.4----29.91- 71.4 74.5----
2024-02-23 02:20 pmNNW 15.5 19.4 3.6 84.4 SW29.91- 71.4 74.5----
2024-02-23 02:10 pm N 15.5 19.4 3.6-4.4 SW29.91- 71.2 74.5----
2024-02-23 02:00 pmNNW 15.5 19.4----29.90-0.04 71.4 74.5----
2024-02-23 01:50 pm N 15.5 19.4 3.6 74.4SSW29.90- 71.8 74.5----
2024-02-23 01:40 pm N 15.5 19.4----29.90- 72.1 74.5----
2024-02-23 01:30 pm N 15.5 19.4----29.90- 72.0 74.5----
2024-02-23 01:20 pmNNW 15.5 17.5 3.6 84.4 SW29.91- 71.8 74.5----
2024-02-23 01:10 pmNNW 13.6 15.5 3.6-4.4 SW29.91- 71.8 74.5----
2024-02-23 01:00 pmNNW 13.6 17.5----29.91-0.02 71.6 74.5----
2024-02-23 12:50 pmNNW 13.6 15.5 3.9 74.5SSW29.91- 71.8 74.5----
2024-02-23 12:40 pmNNW 13.6 17.5----29.92- 72.0 74.5----
2024-02-23 12:30 pmNNW 13.6 17.5----29.92- 72.1 74.5----
2024-02-23 12:20 pmNNW 15.5 17.5 3.6 74.4SSW29.92- 72.1 74.3----
2024-02-23 12:10 pmNNW 15.5 19.4 3.6-4.4SSW29.93- 72.3 74.3----
2024-02-23 12:00 pm NW 15.5 17.5----29.93+0.01 72.7 74.3----
2024-02-23 11:50 am NW 15.5 17.5 3.9 74.5SSW29.93- 72.7 74.3----
2024-02-23 11:40 am NW 15.5 19.4----29.93- 72.5 74.3----
2024-02-23 11:30 am NW 15.5 17.5----29.93- 72.9 74.3----
2024-02-23 11:20 am NW 13.6 17.5 3.9 74.4SSW29.94- 72.9 74.3----
2024-02-23 11:10 am NW 15.5 17.5 3.9-4.4SSW29.94- 72.7 74.1----
2024-02-23 11:00 am NW 15.5 17.5----29.94+0.05 72.9 74.1----
2024-02-23 10:50 am NW 15.5 19.4 3.6 74.6 S29.94- 72.9 74.1----
2024-02-23 10:40 am NW 15.5 19.4----29.94- 73.0 74.1----
2024-02-23 10:30 am NW 15.5 19.4----29.94- 73.0 74.1----
2024-02-23 10:20 amWNW 15.5 17.5 3.6 74.6SSW29.94- 73.0 74.1----
2024-02-23 10:10 amWNW 15.5 19.4 3.6-4.6SSW29.94- 73.2 74.1----
2024-02-23 10:00 amWNW 15.5 19.4----29.93+0.07 73.2 74.1----
2024-02-23 09:50 amWNW 15.5 19.4 3.6 74.5 S29.93- 73.2 74.1----
2024-02-23 09:40 amWNW 15.5 19.4----29.93- 73.2 73.9----
2024-02-23 09:30 amWNW 13.6 15.5----29.92- 73.2 73.9----
2024-02-23 09:20 amWNW 13.6 17.5 3.9 74.8SSW29.92- 73.0 73.9----
2024-02-23 09:10 amWNW 15.5 17.5----29.92- 73.0 73.9----
2024-02-23 09:00 amWNW 13.6 17.5----29.91+0.06 73.2 73.9----
2024-02-23 08:50 amWNW 13.6 17.5 3.9 75.1 SW29.91- 73.2 73.9----
2024-02-23 08:40 amWNW 13.6 17.5----29.91- 73.4 73.9----
2024-02-23 08:30 amWNW 13.6 17.5----29.91- 73.2 73.9----
2024-02-23 08:20 amWNW 13.6 17.5 4.3 75.1 S29.91- 73.2 73.9----
2024-02-23 08:10 amWNW 13.6 17.5 4.3-5.1 S29.90- 73.0 73.9----
2024-02-23 08:00 amWNW 13.6 15.5----29.89+0.05 73.4 73.8----
2024-02-23 07:50 amWNW 13.6 17.5 4.6 75.2SSW29.89- 73.6 73.8----
2024-02-23 07:40 amWNW 13.6 17.5----29.89- 73.6 73.8----
2024-02-23 07:30 am W 13.6 17.5----29.89- 73.6 73.8----
2024-02-23 07:20 am W 13.6 17.5 4.6 75.4SSW29.88- 73.6 73.8----
2024-02-23 07:10 am W 13.6 15.5 4.6-5.4SSW29.87- 73.6 73.8----
2024-02-23 07:00 am W 13.6 15.5----29.87+0.04 73.6 73.6----
2024-02-23 06:50 am W 13.6 15.5 4.6 75.2SSW29.87- 73.8 73.6----
2024-02-23 06:40 am W 13.6 15.5 4.6-5.2SSW29.86- 73.8 73.6----
2024-02-23 06:30 am W 13.6 15.5----29.86- 73.8 73.6----
2024-02-23 06:20 am W 13.6 15.5 4.3 85.1SSW29.86- 73.6 73.6----
2024-02-23 06:10 am W 13.6 15.5 4.3-5.1SSW29.86- 73.6 73.4----
2024-02-23 06:00 am W 11.7 15.5----29.85+0.04 73.6 73.4----
2024-02-23 05:50 amWSW 11.7 15.5 4.9 85.5SSW29.85- 73.8 73.4----
2024-02-23 05:40 amWSW 13.6 15.5----29.85- 73.6 73.4----
2024-02-23 05:30 amWSW 13.6 15.5----29.85- 73.8 73.2----
2024-02-23 05:20 am W 13.6 15.5 4.9 75.3 S29.85- 73.6 73.2----
2024-02-23 05:10 amWSW 13.6 15.5----29.85- 73.8 73.0----
2024-02-23 05:00 amWSW 11.7 13.6----29.85+0.01 73.8 73.0----
2024-02-23 04:50 amWSW 11.7 15.5 4.9 75.4SSE29.84- 73.6 72.9----
2024-02-23 04:40 amWSW 11.7 15.5----29.83- 73.6 72.9----
2024-02-23 04:30 amWSW 13.6 15.5----29.83- 73.6 72.9----
2024-02-23 04:20 amWSW 13.6 15.5 4.9 75.6SSW29.83- 73.6 72.7----
2024-02-23 04:10 amWSW 11.7 15.5 4.9-5.6SSW29.83- 73.6 72.7----
2024-02-23 04:00 amWSW 13.6 15.5----29.83-0.02 73.6 72.7----
2024-02-23 03:50 amWSW 13.6 15.5 5.6 75.5 S29.83- 73.6 72.7----
2024-02-23 03:40 am SW 13.6 15.5----29.83- 73.6 72.7----
2024-02-23 03:30 am SW 13.6 17.5----29.83- 73.4 72.5----
2024-02-23 03:20 am SW 13.6 15.5 4.9 75.5 S29.83- 73.6 72.5----
2024-02-23 03:10 am SW 11.7 15.5 4.9-5.5 S29.83- 73.4 72.3----
2024-02-23 03:00 am SW 11.7 13.6----29.82-0.04 73.6 72.3----
2024-02-23 02:50 amSSW 11.7 15.5 5.2 75.7SSW29.82- 73.4 72.3----
2024-02-23 02:40 amSSW 13.6 15.5 5.2-5.7SSW29.82- 73.6 72.1----
2024-02-23 02:30 am SW 11.7 15.5----29.82- 73.6 72.1----
2024-02-23 02:20 am SW 9.7 13.6 5.2 85.7SSW29.83- 73.2 72.1----
2024-02-23 02:10 am SW 7.8 9.7 5.2-5.7SSW29.84- 73.4 72.1----
2024-02-23 02:00 am SW 7.8 9.7----29.83-0.02 73.4 72.1----
2024-02-23 01:50 amWSW 7.8 9.7 5.2 65.7SSE29.84- 73.4 72.0----
2024-02-23 01:40 amWSW 7.8 9.7----29.85- 73.4 72.0----
2024-02-23 01:30 amWSW 7.8 9.7----29.85- 73.4 72.0----
2024-02-23 01:20 amWSW 7.8 9.7 5.2 75.5 S29.85- 73.4 72.0----
2024-02-23 01:10 amWSW 7.8 9.7----29.85- 73.6 72.0----
2024-02-23 01:00 amWSW 9.7 11.7----29.85+0.00 73.6 72.1----
2024-02-23 12:50 amWSW 9.7 11.7 4.9 75.5SSW29.86- 73.6 72.1----
2024-02-23 12:40 am SW 7.8 11.7 4.9-5.5SSW29.86- 73.6 72.1----
2024-02-23 12:30 am SW 7.8 9.7----29.86- 73.4 72.0----
2024-02-23 12:20 amWSW 7.8 9.7 5.9 75.7 S29.86- 73.4 72.0----
2024-02-23 12:10 am SW 7.8 9.7 5.9-5.7 S29.86- 73.6 72.0----
2024-02-23 12:00 am SW 7.8 11.7----29.86+0.01 73.6 72.0----
2024-02-22 11:50 pm SW 7.8 11.7 5.9 75.7SSW29.86- 73.4 72.0----
2024-02-22 11:40 pm SW 7.8 9.7----29.86- 73.4 72.0----
2024-02-22 11:30 pm SW 7.8 9.7----29.86- 73.6 72.0----
2024-02-22 11:20 pm SW 9.7 11.7 5.6 75.5 S29.86- 73.4 72.0----
2024-02-22 11:10 pm SW 7.8 11.7 5.6-5.5 S29.86- 73.4 72.0----
2024-02-22 11:00 pm SW 9.7 11.7----29.85+0.01 73.4 72.0----
2024-02-22 10:50 pm SW 7.8 9.7 5.9 85.7SSW29.86- 73.4 72.0----
2024-02-22 10:40 pm SW 7.8 11.7----29.86- 73.6 72.0----
2024-02-22 10:30 pm SW 7.8 9.7----29.86- 73.6 72.0----
2024-02-22 10:20 pmSSW 9.7 13.6 6.2 75.5 S29.86- 73.6 71.8----
2024-02-22 10:10 pmSSW 7.8 11.7 6.2-5.5 S29.86- 73.4 71.8----
2024-02-22 10:00 pmSSW 7.8 9.7----29.86+0.03 73.4 71.8----
2024-02-22 09:50 pmSSW 9.7 11.7 6.2 75.7 S29.86- 73.6 71.8----
2024-02-22 09:40 pmSSW 9.7 11.7----29.86- 73.6 71.8----
2024-02-22 09:30 pmSSW 9.7 11.7----29.85- 73.4 71.8----
2024-02-22 09:20 pmSSW 9.7 13.6 6.2 75.5SSE29.85- 73.4 71.8----
2024-02-22 09:10 pmSSW 9.7 13.6 6.2-5.5SSE29.85- 73.4 71.8----
2024-02-22 09:00 pmSSW 9.7 13.6----29.85+0.04 73.4 71.8----
2024-02-22 08:50 pmSSW 11.7 13.6 6.6 75.6SSW29.85- 73.4 71.8----
2024-02-22 08:40 pmSSW 9.7 13.6 6.6-5.6SSW29.85- 73.4 71.8----
2024-02-22 08:30 pmSSW 9.7 13.6----29.85- 73.4 71.8----
2024-02-22 08:20 pm S 11.7 13.6 6.2 75.5SSW29.85- 73.4 71.6----
2024-02-22 08:10 pm S 11.7 15.5----29.84- 73.4 71.8----
2024-02-22 08:00 pm S 11.7 13.6----29.84+0.02 73.4 71.6----
2024-02-22 07:50 pm S 11.7 15.5 6.9 75.6 S29.84- 73.4 71.6----

Detailed Wave Summary
for 42002 as of
(8:10 pm CST on 02/23/2024)
0210 GMT on 02/24/2024:

These wave data are displayed in rounded times.

     

Click on the graph icon in the table below to see a time series plot of the last five days of that observation.

5-day plot - Significant Wave Height Significant Wave Height (WVHT): 4.3 ft
5-day plot - Swell Height Swell Height (SwH): 0.3 ft
5-day plot - Swell Period Swell Period (SwP): 12.9 sec
5-day plot - Swell Direction Swell Direction (SwD): W
5-day plot - Wind Wave Height Wind Wave Height (WWH): 4.3 ft
5-day plot - Wind Wave Period Wind Wave Period (WWP): 5.3 sec
5-day plot - Wind Wave Direction Wind Wave Direction (WWD):NNW
5-day plot - Wave Steepness Wave Steepness (STEEPNESS):VERY_STEEP
5-day plot - Average Wave Period Average Wave Period (APD): 4.5 sec
Previous observations
TIME
(CST)
5-day plot - Wave Height
WVHT
ft
5-day plot - Swell Height
SwH
ft
5-day plot - Swell Period
SwP
sec
5-day plot - Swell Direction
SwD
 
5-day plot - Wind Wave Height
WWH
ft
5-day plot - Wind Wave Period
WWP
sec
5-day plot - Wind Wave Direction
WWD
 
5-day plot - Wave Steepness
STEEPNESS
 
5-day plot - Average Wave Period
APD
sec
2024-02-23 07:40 pm 3.9 0.0-- 3.9 5.3 NNWVERY_STEEP 4.4
2024-02-23 07:10 pm 3.9 0.0-- 3.9 5.3 NNWVERY_STEEP 4.5
2024-02-23 06:40 pm 4.3 0.3 12.1 SW 4.3 5.9 NNW STEEP 4.6
2024-02-23 06:10 pm 3.9 0.0-- 3.9 5.3 NNWVERY_STEEP 4.4
2024-02-23 05:40 pm 3.6 0.0-- 3.6 4.8 NNWVERY_STEEP 4.3
2024-02-23 05:10 pm 3.9 0.0-- 3.9 4.8 NNWVERY_STEEP 4.4
2024-02-23 04:40 pm 3.9 0.0-- 3.9 4.3 NWVERY_STEEP 4.4
2024-02-23 04:10 pm 3.6 1.3 7.1SSW 3.6 4.3 NNWVERY_STEEP 4.2
2024-02-23 03:40 pm 3.9 1.3 7.1SSW 3.6 4.5 NNWVERY_STEEP 4.2
2024-02-23 03:10 pm 3.6 0.0-- 3.6 6.7 SSW STEEP 4.2
2024-02-23 02:40 pm 3.9 2.3 7.7WSW 3.0 3.7 NW AVERAGE 4.3
2024-02-23 02:10 pm 3.6 2.3 7.7 SW 3.0 3.6 NW AVERAGE 4.4
2024-02-23 01:40 pm 3.6 2.3 7.1SSW 3.0 3.4 NW AVERAGE 4.4
2024-02-23 01:10 pm 3.6 2.0 7.7 SW 3.0 3.2 NW AVERAGE 4.4
2024-02-23 12:40 pm 3.9 2.3 7.1SSW 3.0 5.3 S AVERAGE 4.5
2024-02-23 12:10 pm 3.6 2.6 7.1SSW 2.6 3.3 WNW AVERAGE 4.4
2024-02-23 11:40 am 3.9 2.6 7.1SSW 2.6 5.9 S AVERAGE 4.5
2024-02-23 11:10 am 3.9 2.6 6.7SSW 3.0 5.6 S STEEP 4.4
2024-02-23 10:40 am 3.6 2.6 6.7 S 2.6 5.9 S STEEP 4.6
2024-02-23 10:10 am 3.6 2.6 6.7SSW 2.6 4.8 S STEEP 4.6
2024-02-23 09:40 am 3.6 2.6 6.7 S 2.3 5.3 SSE STEEP 4.5
2024-02-23 09:10 am 3.9 2.6 7.1SSW 3.0 5.0 S AVERAGE 4.8
2024-02-23 08:40 am 3.9 2.3 7.1 SW 3.3 4.8 SSE AVERAGE 5.1
2024-02-23 08:10 am 4.3 2.6 7.1 S 3.3 5.3 S STEEP 5.1
2024-02-23 07:40 am 4.6 0.0-- 4.6 6.7 SSW STEEP 5.2
2024-02-23 07:10 am 4.6 3.3 7.1SSW 3.0 5.9 SSE STEEP 5.4
2024-02-23 06:40 am 4.6 3.0 7.1SSW 3.6 6.2 SSE STEEP 5.2
2024-02-23 06:10 am 4.3 2.6 7.7SSW 3.3 6.2 SSE AVERAGE 5.1
2024-02-23 05:40 am 4.9 3.6 7.7SSW 3.6 5.0 SE AVERAGE 5.5
2024-02-23 05:10 am 4.9 3.3 6.7 S 3.6 5.9 S STEEP 5.3
2024-02-23 04:40 am 4.9 3.9 7.1SSE 3.3 5.3 SSE STEEP 5.4
2024-02-23 04:10 am 4.9 3.9 7.1SSW 3.0 5.6 S STEEP 5.6
2024-02-23 03:40 am 5.6 3.9 6.7 S 3.9 5.9 SSE STEEP 5.5
2024-02-23 03:10 am 4.9 3.9 6.7 S 3.3 4.5 SE STEEP 5.5
2024-02-23 02:40 am 5.2 3.9 7.1SSW 3.6 5.0 SE STEEP 5.7
2024-02-23 02:10 am 5.2 4.9 7.7SSW 1.3 3.8 SSE AVERAGE 5.7
2024-02-23 01:40 am 5.2 4.9 6.2SSE 1.3 3.2 S STEEP 5.7
2024-02-23 01:10 am 5.2 5.2 6.7 S 1.6 3.8 S STEEP 5.5
2024-02-23 12:40 am 4.9 4.9 7.1SSW 1.6 3.7 S STEEP 5.5
2024-02-23 12:10 am 5.9 5.9 6.7 S 1.6 4.0 S STEEP 5.7
2024-02-22 11:40 pm 5.9 5.6 7.1SSW 1.6 4.0 S STEEP 5.7
2024-02-22 11:10 pm 5.6 5.2 7.1 S 2.0 3.8 S STEEP 5.5
2024-02-22 10:40 pm 5.9 5.9 7.7SSW 2.0 3.8 SSE STEEP 5.7
2024-02-22 10:10 pm 6.2 5.9 6.7 S 1.6 3.3 S STEEP 5.5
2024-02-22 09:40 pm 6.2 5.9 7.1 S 2.0 4.2 S STEEP 5.7
2024-02-22 09:10 pm 6.2 5.6 6.7SSE 2.3 3.8 S STEEP 5.5
2024-02-22 08:40 pm 6.6 5.9 7.1SSW 2.6 5.0 S STEEP 5.6
2024-02-22 08:10 pm 6.2 4.9 7.1SSW 3.9 4.2 SSE STEEP 5.5

Plot of wave energy versus frequency (and period)